Location: Hopewell Observatory
(38.8698°N, 77.6988°W)
Time: 18:59:09
(UTC-05:00)

Daily predictions for brighter satellites

Satellite Brightness Start Highest point End
(mag) Time Altitude Azimuth Time Altitude Azimuth Time Altitude Azimuth
CORIOLIS 4.1 17:35:38 10° SSE 17:40:55 69° ENE 17:46:15 10° N
Cosmos 2221 3.3 17:37:49 10° NNE 17:41:41 30° ENE 17:45:33 10° SE
Ariane Rocket 3.0 17:38:12 10° SSE 17:43:14 79° ENE 17:48:19 10° N
Lacrosse 4 Rocket 4.0 17:42:24 10° W 17:44:34 14° NW 17:46:44 10° NNW
CSL-04 Rocket 3.9 17:40:05 10° SSE 17:45:38 84° WSW 17:51:13 10° NNW
Cosmos 1300 4.1 17:43:50 10° NNE 17:46:33 18° ENE 17:49:15 10° ESE
COSMO-SKYMED 1 3.1 17:45:40 10° NNE 17:49:44 38° E 17:53:47 10° SSE
IRS-1A Rocket 4.3 17:46:01 10° SSE 17:51:24 58° ENE 17:56:53 10° N
Cosmos 1943 Rocket 2.6 17:50:50 10° N 17:56:02 38° ENE 18:01:10 10° SE
CZ-2C R/B 3.8 17:52:19 10° NNE 17:57:04 73° ESE 18:01:42 10° S
BREEZE-M R/B 3.7 17:54:29 10° WSW 17:58:21 82° NNW 18:11:37 10° ENE
Tiangong 1 1.4 17:58:15 10° W 18:00:35 36° N 18:02:22 15° NE
SMAP 3.8 17:57:35 10° S 18:02:10 59° W 18:06:47 10° NNW
Cosmos 1503 Rocket 4.0 17:57:01 10° NNW 18:02:22 84° ENE 18:07:43 10° SSE
Meteor 1-21 Rocket 4.3 17:58:57 10° S 18:04:46 71° E 18:10:41 10° NNE
ERS-2 3.3 18:02:00 10° ESE 18:04:54 22° ENE 18:07:49 10° NNE
Cosmos 1842 Rocket 4.2 18:02:15 10° NNW 18:06:38 62° W 18:10:58 10° S
Cosmos 2341 Rocket 4.0 18:03:07 10° N 18:09:24 80° E 18:15:42 10° S
Cosmos 1908 3.8 18:06:03 10° NNW 18:09:54 61° W 18:13:41 10° S
NOAA 12 4.3 18:06:26 10° SE 18:11:25 47° ENE 18:16:26 10° N
MOS 1 4.3 18:10:06 10° SSE 18:15:39 62° ENE 18:21:13 10° N
Cosmos 1076 Rocket 3.6 18:11:29 10° S 18:15:44 57° E 18:20:03 10° NNE
Cosmos 1992 Rocket 4.2 18:11:15 10° SSW 18:16:26 76° WNW 18:21:40 10° NNE
FENGYUN 3A 3.6 18:12:33 10° SSE 18:17:47 60° ENE 18:23:04 10° N
NOSS 2-1 (C) 4.5 18:15:54 10° WSW 18:19:20 37° NW 18:23:07 10° NNE
Cosmos 2084 3.5 18:15:58 10° NW 18:19:45 67° WSW 18:23:37 10° SSE
Cosmos 1400 Rocket 2.7 18:15:51 10° S 18:19:50 82° E 18:23:57 10° N
Cosmos 1328 4.4 18:16:33 10° SSE 18:20:12 35° E 18:23:47 11° NNE
H-2A R/B 3.6 18:18:59 10° SE 18:22:09 26° ENE 18:25:22 10° NNE
Okean 3 Rocket 3.5 18:18:43 10° S 18:23:14 75° E 18:27:46 10° N
Cosmos 1766 Rocket 3.8 18:24:47 10° SSE 18:28:52 43° E 18:32:59 10° NNE
OAO 3 Rocket 3.7 18:24:57 10° WSW 18:29:28 48° S 18:32:27 20° ESE
BREEZE-M R/B 4.2 18:31:50 10° WNW 18:33:34 17° NNW 18:34:10 16° N
Cosmos 2181 Rocket 4.3 18:27:37 10° SSW 18:34:03 74° W 18:40:31 10° N
Cosmos 1943 3.9 18:29:53 10° SW 18:35:23 54° WNW 18:40:55 10° NNE
SKYMED 2 4.2 18:33:33 10° N 18:37:49 58° WNW 18:42:05 10° SSW
Cosmos 968 Rocket 3.3 18:33:37 10° NNW 18:38:48 78° ENE 18:43:54 10° SSE
ATLAS 2AS CENTAUR R/B 3.1 18:32:27 10° NW 18:40:20 77° WSW 18:47:31 10° SSE
Cosmos 1726 3.4 18:39:05 10° NNW 18:42:33 41° W 18:46:00 10° SSW
ALOS 2.6 18:40:32 10° S 18:45:09 68° W 18:49:49 10° NNW
DMSP B5D1-3 4.4 18:41:07 10° NNE 18:46:14 89° ESE 18:51:19 10° SSW
YAOGAN 1 4.2 18:42:17 10° SSW 18:46:17 37° W 18:50:20 10° NNW
CZ-4 R/B 4.0 18:43:38 10° SSW 18:47:04 24° W 18:50:32 10° NW
EO 1 Del DPAF 3.5 18:44:19 10° N 18:48:08 67° WNW 18:51:55 10° SSW
Cosmos 1703 4.2 18:50:49 10° SSE 18:53:22 31° SE 18:53:22 31° SE
Cosmos 2218 Rocket 4.1 18:54:35 10° N 19:00:45 76° W 19:06:51 10° S
SL-8 Rocket 4.5 18:55:40 10° NNW 19:01:45 61° W 19:07:50 10° S
NOSS 3-4 (A) 4.0 18:55:54 10° NNW 19:02:43 50° NE 19:05:58 31° ESE
NOSS 3-4 (C) 4.0 18:56:00 10° NNW 19:02:49 49° NE 19:05:59 32° ESE
Thor Agena Rocket 3.6 19:02:12 36° NE 19:04:04 53° E 19:09:08 10° S
Cosmos 2369 Rocket 4.2 19:12:03 10° NW 19:16:51 29° WSW 19:21:39 10° SSW
Cosmos 1315 Rocket 4.4 19:19:46 10° SW 19:23:22 34° WNW 19:26:06 15° NNW
Cosmos 1408 Rocket 4.4 19:19:34 10° SSW 19:23:43 48° W 19:26:39 18° N
Cosmos 1626 3.1 19:21:14 10° SSW 19:24:48 46° W 19:25:22 42° NW
USA 81 3.9 19:26:10 10° S 19:31:24 81° E 19:31:24 81° E
GEOS 3 Rocket 3.8 19:29:52 35° SSE 19:32:10 74° WSW 19:37:32 10° NW
Meteor 1-27 4.2 19:27:19 10° N 19:33:01 82° W 19:38:48 10° S
Cosmos 44 3.6 19:33:03 10° SW 19:36:53 54° W 19:36:53 54° W
Cosmos 1656 Rocket 3.7 19:33:29 10° NNW 19:38:57 72° WSW 19:41:01 39° S
Cosmos 1943 Rocket 4.1 19:34:55 10° NW 19:39:34 28° WSW 19:44:12 10° SSW
Cosmos 1777 Rocket 4.4 19:42:55 10° NNW 19:48:05 60° WSW 19:49:05 50° SSW
Meteor 2-15 4.3 19:45:32 10° S 19:51:22 82° SSW 19:51:22 82° SSW
Cosmos 44 Rocket 4.2 19:49:31 10° SW 19:53:07 43° W 19:53:07 43° W
COSMOS 2406 3.5 19:49:06 10° SSW 19:53:49 62° SW 19:53:49 62° SW
Nadezhda 3 Rocket 4.4 19:50:01 10° SSW 19:56:13 61° W 20:01:57 13° N
